CPA776 ZSAM-WSSS

Flight info

Callsign CPA776
Flight time N/A
Altitude 34000
Route ZSAM SID NUSPA W597 IKATA A470 MAGOG A1 BIGEX L642 ESPOB Q801 ESBUM Q802 ELALO STAR WSSS
Aircraft B777/H-SDE1E2E3FGHIJ2J3J4J5M1RWXY/L

Departure

Time 2026-04-30 11:39
Airport Xiamen Gaoqi International Airport (ZSAM)

Arrival

Time N/A
Airport Singapore Changi Airport (WSSS)
Time Latitude Longitude Altitude Speed Heading
2026-04-30 10:53 24.53998 118.12855 60 ft 0 kts 142°
2026-04-30 11:25 24.53994 118.12858 60 ft 1 kts 142°
2026-04-30 11:26 24.54022 118.12834 52 ft 4 kts 142°
2026-04-30 11:26 24.54043 118.12816 52 ft 4 kts 142°
2026-04-30 11:26 24.54064 118.12798 52 ft 4 kts 142°
2026-04-30 11:27 24.54086 118.12790 52 ft 0 kts 199°
2026-04-30 11:30 24.54085 118.12789 52 ft 2 kts 199°
2026-04-30 11:30 24.54022 118.12753 54 ft 13 kts 215°
2026-04-30 11:31 24.53964 118.12681 53 ft 13 kts 231°
2026-04-30 11:31 24.53910 118.12606 53 ft 13 kts 232°
2026-04-30 11:31 24.53881 118.12566 56 ft 0 kts 232°
2026-04-30 11:32 24.53863 118.12541 54 ft 8 kts 232°
2026-04-30 11:32 24.53816 118.12475 54 ft 14 kts 232°
2026-04-30 11:32 24.53743 118.12371 55 ft 20 kts 232°
2026-04-30 11:33 24.53623 118.12208 58 ft 0 kts 230°
2026-04-30 11:33 24.53623 118.12207 58 ft 1 kts 230°
2026-04-30 11:33 24.53604 118.12182 58 ft 8 kts 230°
2026-04-30 11:33 24.53556 118.12105 57 ft 16 kts 251°
2026-04-30 11:34 24.53545 118.11978 59 ft 20 kts 242°
2026-04-30 11:34 24.53450 118.11834 58 ft 27 kts 232°
2026-04-30 11:34 24.53415 118.11786 59 ft 3 kts 232°
2026-04-30 11:34 24.53398 118.11762 63 ft 9 kts 232°
2026-04-30 11:35 24.53376 118.11685 63 ft 13 kts 271°
2026-04-30 11:35 24.53421 118.11521 61 ft 21 kts 297°
2026-04-30 11:35 24.53479 118.11469 63 ft 0 kts 350°
2026-04-30 11:35 24.53488 118.11474 61 ft 3 kts 31°
2026-04-30 11:36 24.53515 118.11513 64 ft 10 kts 56°
2026-04-30 11:36 24.53566 118.11584 59 ft 0 kts 52°
2026-04-30 11:38 24.53645 118.11695 58 ft 58 kts 52°
2026-04-30 11:38 24.54076 118.12296 56 ft 142 kts 52°
2026-04-30 11:39 24.54828 118.13391 146 ft 206 kts 54°
2026-04-30 11:39 24.55744 118.14666 846 ft 218 kts 52°
2026-04-30 11:39 24.56627 118.15884 2322 ft 190 kts 51°
2026-04-30 11:39 24.57562 118.17169 2408 ft 229 kts 51°
2026-04-30 11:40 24.58542 118.18527 2430 ft 230 kts 52°
2026-04-30 11:40 24.59516 118.19884 2463 ft 225 kts 51°
2026-04-30 11:40 24.60496 118.21248 2505 ft 228 kts 52°
2026-04-30 11:40 24.61473 118.22608 2524 ft 228 kts 50°
2026-04-30 11:41 24.62735 118.23706 2858 ft 232 kts 19°
2026-04-30 11:41 24.64329 118.23856 3226 ft 234 kts 346°
2026-04-30 11:41 24.65787 118.23143 3605 ft 237 kts 320°
2026-04-30 11:41 24.66857 118.21741 3831 ft 242 kts 294°
2026-04-30 11:42 24.67163 118.19939 3824 ft 243 kts 260°
2026-04-30 11:42 24.66562 118.18195 3911 ft 247 kts 239°
2026-04-30 11:42 24.65614 118.16603 3984 ft 252 kts 237°
2026-04-30 11:42 24.64649 118.14995 4012 ft 255 kts 238°
2026-04-30 11:43 24.63665 118.13365 4019 ft 255 kts 237°
2026-04-30 11:43 24.62688 118.11754 4032 ft 253 kts 237°
2026-04-30 11:43 24.61710 118.10140 4066 ft 252 kts 237°
2026-04-30 11:43 24.60750 118.08552 4334 ft 253 kts 238°
2026-04-30 11:44 24.59770 118.06929 4641 ft 254 kts 238°
2026-04-30 11:44 24.58791 118.05306 4920 ft 253 kts 238°
2026-04-30 11:44 24.57828 118.03705 5188 ft 253 kts 238°
2026-04-30 11:44 24.56848 118.02082 5460 ft 255 kts 236°
2026-04-30 11:45 24.55613 118.00669 5697 ft 260 kts 215°
2026-04-30 11:45 24.54089 117.99609 6033 ft 265 kts 214°
2026-04-30 11:45 24.52533 117.98483 5993 ft 267 kts 216°
2026-04-30 11:45 24.51007 117.97346 6015 ft 269 kts 216°
2026-04-30 11:46 24.49455 117.96183 6016 ft 269 kts 216°
2026-04-30 11:46 24.47904 117.95020 6015 ft 269 kts 216°
2026-04-30 11:46 24.46351 117.93856 6007 ft 269 kts 216°
2026-04-30 11:46 24.44826 117.92710 6018 ft 269 kts 216°
2026-04-30 11:47 24.43291 117.91557 6011 ft 268 kts 216°
2026-04-30 11:47 24.41748 117.90397 6015 ft 268 kts 216°
2026-04-30 11:47 24.40199 117.89234 6023 ft 268 kts 216°
2026-04-30 11:47 24.38652 117.88071 6015 ft 269 kts 216°
2026-04-30 11:48 24.37123 117.86922 6024 ft 270 kts 216°
2026-04-30 11:48 24.35574 117.85759 6018 ft 269 kts 216°
2026-04-30 11:48 24.34023 117.84595 6019 ft 269 kts 216°
2026-04-30 11:48 24.32475 117.83433 6011 ft 269 kts 216°
2026-04-30 11:49 24.30948 117.82287 6015 ft 270 kts 216°
2026-04-30 11:49 24.29392 117.81119 6019 ft 270 kts 216°
2026-04-30 11:49 24.27831 117.79948 6013 ft 271 kts 216°
2026-04-30 11:49 24.26292 117.78795 6018 ft 270 kts 216°
2026-04-30 11:50 24.24736 117.77628 6023 ft 270 kts 216°
2026-04-30 11:50 24.23200 117.76478 6020 ft 269 kts 216°
2026-04-30 11:50 24.21648 117.75316 6005 ft 269 kts 216°
2026-04-30 11:50 24.20092 117.74150 6096 ft 269 kts 216°
2026-04-30 11:51 24.18566 117.73008 6718 ft 269 kts 216°
2026-04-30 11:51 24.17008 117.71841 7344 ft 272 kts 216°
2026-04-30 11:51 24.15452 117.70676 7938 ft 275 kts 216°
2026-04-30 11:51 24.13860 117.69486 8547 ft 278 kts 217°
2026-04-30 11:52 24.12227 117.68263 8963 ft 289 kts 217°
2026-04-30 11:52 24.10555 117.67012 9446 ft 297 kts 217°
2026-04-30 11:52 24.08839 117.65730 10033 ft 298 kts 217°
2026-04-30 11:52 24.07131 117.64455 10436 ft 300 kts 217°
2026-04-30 11:53 24.05397 117.63154 10699 ft 300 kts 218°
2026-04-30 11:53 24.03802 117.61703 10843 ft 303 kts 226°
2026-04-30 11:53 24.02303 117.60069 11076 ft 304 kts 227°
2026-04-30 11:53 24.00813 117.58401 11336 ft 308 kts 227°
2026-04-30 11:54 23.99288 117.56707 11433 ft 321 kts 227°
2026-04-30 11:54 23.97683 117.54946 11517 ft 331 kts 227°
2026-04-30 11:54 23.96024 117.53147 11577 ft 340 kts 226°
2026-04-30 11:54 23.94332 117.51325 11692 ft 349 kts 226°
2026-04-30 11:55 23.92587 117.49454 12014 ft 351 kts 226°
2026-04-30 11:55 23.90844 117.47588 12079 ft 354 kts 226°
2026-04-30 11:55 23.89078 117.45699 12127 ft 355 kts 226°
2026-04-30 11:55 23.87302 117.43800 12153 ft 356 kts 226°
2026-04-30 11:56 23.85598 117.41894 12150 ft 352 kts 232°
2026-04-30 11:56 23.84220 117.39679 12163 ft 351 kts 243°
2026-04-30 11:56 23.83193 117.37261 12148 ft 350 kts 251°
2026-04-30 11:56 23.82491 117.34755 12173 ft 349 kts 254°
2026-04-30 11:57 23.81779 117.32185 12158 ft 352 kts 253°
2026-04-30 11:57 23.81054 117.29629 12440 ft 356 kts 253°
2026-04-30 11:57 23.80317 117.27031 13058 ft 357 kts 253°
2026-04-30 11:57 23.79589 117.24464 13656 ft 358 kts 253°
2026-04-30 11:58 23.78845 117.21845 14156 ft 362 kts 253°
2026-04-30 11:58 23.78090 117.19193 14713 ft 364 kts 253°
2026-04-30 11:58 23.77328 117.16579 15251 ft 365 kts 251°
2026-04-30 11:58 23.76241 117.14034 15660 ft 372 kts 240°
2026-04-30 11:59 23.74796 117.11711 16193 ft 375 kts 233°
2026-04-30 11:59 23.73038 117.09586 16671 ft 377 kts 227°
2026-04-30 11:59 23.71200 117.07521 16735 ft 380 kts 227°
2026-04-30 11:59 23.69360 117.05445 16748 ft 380 kts 227°
2026-04-30 12:00 23.67548 117.03396 16748 ft 380 kts 228°
2026-04-30 12:00 23.65706 117.01308 16747 ft 380 kts 228°
2026-04-30 12:00 23.63871 116.99225 16744 ft 380 kts 228°
2026-04-30 12:00 23.62057 116.97164 16750 ft 380 kts 228°
2026-04-30 12:01 23.60216 116.95072 16745 ft 380 kts 228°
2026-04-30 12:01 23.58402 116.93011 16742 ft 380 kts 228°
2026-04-30 12:01 23.56563 116.90922 16744 ft 380 kts 228°
2026-04-30 12:01 23.54726 116.88835 16744 ft 380 kts 228°
2026-04-30 12:02 23.52889 116.86749 16852 ft 380 kts 228°
2026-04-30 12:02 23.51074 116.84689 17143 ft 382 kts 228°
2026-04-30 12:02 23.49221 116.82586 17425 ft 384 kts 228°
2026-04-30 12:02 23.47382 116.80500 17704 ft 386 kts 228°
2026-04-30 12:03 23.45508 116.78378 17980 ft 387 kts 227°
2026-04-30 12:03 23.41454 116.74496 18502 ft 392 kts 218°
2026-04-30 12:03 23.39257 116.72711 18744 ft 393 kts 219°
2026-04-30 12:04 23.37090 116.70922 18988 ft 395 kts 219°
2026-04-30 12:04 23.34894 116.69100 19244 ft 396 kts 219°
2026-04-30 12:04 23.32717 116.67290 19483 ft 397 kts 219°
2026-04-30 12:04 23.30500 116.65448 19652 ft 399 kts 219°
2026-04-30 12:05 23.28313 116.63631 19675 ft 400 kts 219°
2026-04-30 12:05 23.26095 116.61790 19729 ft 400 kts 219°
2026-04-30 12:05 23.23880 116.59951 19726 ft 401 kts 219°
2026-04-30 12:05 23.21664 116.58113 19734 ft 400 kts 219°
2026-04-30 12:06 23.19443 116.56272 19739 ft 400 kts 219°
2026-04-30 12:06 23.17225 116.54434 19738 ft 400 kts 219°
2026-04-30 12:06 23.15031 116.52617 19744 ft 400 kts 219°
2026-04-30 12:06 23.12812 116.50779 19737 ft 401 kts 219°
2026-04-30 12:07 23.10586 116.48937 19738 ft 401 kts 219°
2026-04-30 12:07 23.08357 116.47092 19743 ft 401 kts 219°
2026-04-30 12:07 23.06161 116.45276 19736 ft 401 kts 219°
2026-04-30 12:07 23.03937 116.43438 19735 ft 400 kts 219°
2026-04-30 12:08 23.01712 116.41600 19737 ft 400 kts 219°
2026-04-30 12:08 22.99491 116.39764 19741 ft 400 kts 219°
2026-04-30 12:08 22.97287 116.37944 19736 ft 400 kts 219°
2026-04-30 12:08 22.95083 116.36127 19731 ft 399 kts 219°
2026-04-30 12:09 22.92874 116.34299 19657 ft 399 kts 220°
2026-04-30 12:09 22.90689 116.32484 19665 ft 399 kts 220°
2026-04-30 12:09 22.88481 116.30647 19663 ft 399 kts 220°
2026-04-30 12:09 22.86263 116.28803 19667 ft 400 kts 220°
2026-04-30 12:10 22.84055 116.26969 19665 ft 399 kts 220°
2026-04-30 12:10 22.81847 116.25136 19662 ft 399 kts 220°
2026-04-30 12:10 22.79638 116.23304 19670 ft 399 kts 220°
2026-04-30 12:10 22.77443 116.21484 19672 ft 399 kts 220°
2026-04-30 12:11 22.75255 116.19670 19667 ft 399 kts 220°
2026-04-30 12:11 22.73044 116.17838 19669 ft 399 kts 220°
2026-04-30 12:11 22.70827 116.16006 19668 ft 399 kts 219°
2026-04-30 12:11 22.68626 116.14205 19669 ft 399 kts 219°
2026-04-30 12:12 22.66403 116.12396 19669 ft 399 kts 219°
2026-04-30 12:12 22.64174 116.10584 19664 ft 399 kts 219°
2026-04-30 12:12 22.61975 116.08795 19671 ft 399 kts 219°
2026-04-30 12:12 22.59751 116.06986 19670 ft 399 kts 219°
2026-04-30 12:13 22.57522 116.05172 19665 ft 399 kts 219°
2026-04-30 12:13 22.55327 116.03385 19665 ft 399 kts 219°
2026-04-30 12:13 22.53093 116.01567 19663 ft 398 kts 219°
2026-04-30 12:13 22.50904 115.99787 19671 ft 399 kts 219°
2026-04-30 12:14 22.48676 115.97975 19663 ft 398 kts 219°
2026-04-30 12:14 22.46459 115.96173 19621 ft 397 kts 219°
2026-04-30 12:14 22.44242 115.94372 19640 ft 397 kts 219°
2026-04-30 12:14 22.42054 115.92595 19636 ft 398 kts 219°
2026-04-30 12:15 22.39823 115.90783 19828 ft 402 kts 219°
2026-04-30 12:15 22.37572 115.88955 20224 ft 402 kts 220°
2026-04-30 12:15 22.35362 115.87163 20613 ft 402 kts 220°
2026-04-30 12:15 22.33110 115.85336 20962 ft 403 kts 220°
2026-04-30 12:16 22.31118 115.83285 21067 ft 400 kts 238°
2026-04-30 12:16 22.29885 115.80583 21270 ft 402 kts 253°
2026-04-30 12:16 22.29334 115.77625 21728 ft 399 kts 266°
2026-04-30 12:16 22.29199 115.74665 22009 ft 401 kts 268°
2026-04-30 12:17 22.29014 115.68574 22583 ft 406 kts 268°
2026-04-30 12:17 22.28924 115.65551 22597 ft 406 kts 268°
2026-04-30 12:17 22.28827 115.62505 22639 ft 405 kts 268°
2026-04-30 12:18 22.28723 115.59450 22632 ft 405 kts 268°
2026-04-30 12:18 22.28614 115.56444 22639 ft 405 kts 268°
2026-04-30 12:18 22.28500 115.53395 22642 ft 405 kts 268°
2026-04-30 12:18 22.28383 115.50348 22640 ft 405 kts 268°
2026-04-30 12:19 22.28265 115.47339 22635 ft 405 kts 267°
2026-04-30 12:19 22.28145 115.44296 22644 ft 405 kts 267°
2026-04-30 12:19 22.28025 115.41251 22636 ft 405 kts 267°
2026-04-30 12:19 22.27905 115.38247 22632 ft 405 kts 267°
2026-04-30 12:20 22.27784 115.35206 22642 ft 404 kts 267°
2026-04-30 12:20 22.27661 115.32162 22637 ft 404 kts 267°
2026-04-30 12:20 22.27538 115.29112 22636 ft 404 kts 267°
2026-04-30 12:20 22.27417 115.26111 22635 ft 405 kts 267°
2026-04-30 12:21 22.27293 115.23065 22635 ft 405 kts 267°
2026-04-30 12:21 22.27170 115.20059 22640 ft 405 kts 267°
2026-04-30 12:21 22.27045 115.17015 22636 ft 405 kts 267°
2026-04-30 12:21 22.26919 115.13978 22639 ft 405 kts 267°
2026-04-30 12:22 22.26793 115.10929 22640 ft 405 kts 267°
2026-04-30 12:22 22.26668 115.07920 22638 ft 405 kts 267°
2026-04-30 12:22 22.26540 115.04867 22636 ft 405 kts 267°
2026-04-30 12:22 22.26413 115.01826 22629 ft 405 kts 267°
2026-04-30 12:23 22.26286 114.98823 22628 ft 405 kts 267°
2026-04-30 12:23 22.26157 114.95784 22639 ft 405 kts 267°
2026-04-30 12:23 22.26027 114.92733 22631 ft 405 kts 267°
2026-04-30 12:23 22.25899 114.89729 22637 ft 405 kts 267°
2026-04-30 12:24 22.25768 114.86682 22637 ft 405 kts 267°
2026-04-30 12:24 22.25636 114.83629 22631 ft 406 kts 267°
2026-04-30 12:24 22.25505 114.80605 22630 ft 406 kts 267°
2026-04-30 12:24 22.25373 114.77552 22633 ft 407 kts 267°
2026-04-30 12:25 22.25239 114.74491 22636 ft 407 kts 267°
2026-04-30 12:25 22.25106 114.71458 22681 ft 407 kts 267°
2026-04-30 12:25 22.24971 114.68387 23025 ft 409 kts 267°
2026-04-30 12:25 22.24836 114.65350 23383 ft 410 kts 266°
2026-04-30 12:26 22.24699 114.62252 23726 ft 412 kts 266°
2026-04-30 12:26 22.24570 114.59363 24009 ft 413 kts 266°
2026-04-30 12:26 22.24430 114.56248 24321 ft 415 kts 266°
2026-04-30 12:26 22.24290 114.53121 24626 ft 417 kts 266°
2026-04-30 12:27 22.24148 114.49981 24940 ft 419 kts 266°
2026-04-30 12:27 22.24004 114.46823 25263 ft 421 kts 266°
2026-04-30 12:27 22.23862 114.43687 25579 ft 422 kts 266°
2026-04-30 12:27 22.23716 114.40500 25909 ft 424 kts 266°
2026-04-30 12:28 22.23571 114.37346 26236 ft 426 kts 266°
2026-04-30 12:28 22.23423 114.34130 26568 ft 428 kts 266°
2026-04-30 12:28 22.23275 114.30937 26904 ft 430 kts 266°
2026-04-30 12:28 22.23124 114.27693 27244 ft 432 kts 266°
2026-04-30 12:29 22.22972 114.24445 27587 ft 434 kts 266°
2026-04-30 12:29 22.22899 114.22894 27754 ft 435 kts 266°